Tracking 20242 objects as of 24-Jan-2020
HD Live streaming from Space Station
objects crossing your sky now

FALCON 9 R/B

Track FALCON 9 R/B now!


NORAD ID: 40426
Int'l Code: 2015-010C
Perigee: 301.7 km
Apogee: 62,338.9 km
Inclination: 24.6 °
Period: 1,213.7 minutes
Semi major axis: 37691 km
RCS: Unknown
Launch date: March 2, 2015
Source: United States (US)
Launch site: AIR FORCE EASTERN TEST RANGE (AFETR)

Note: This is a ROCKET BODY
aabbcc
Your satellite tracking list
Your tracking list is empty




NASA's NSSDC Master Catalog

Two Line Element Set (TLE):
1 40426U 15010C   20023.18749094 +.00000116 +00000-0 +38025-3 0  9991
2 40426 024.6194 084.1902 8229653 356.8396 000.5170 01.18642767020886
Source of the keplerian elements: AFSPC